[[{"header":{"parameterUnit":"m.s-1","parameterCategory":1,"la1":30.2991,"la2":30.254,"lo1":-89.0895,"lo2":-89.0444,"dy":0.0017,"dx":0.0017,"nx":28,"ny":28,"refTime":"2024-04-15T09:00:00:Z","depth":0,"parameterNumber":2,"parameterNumberName":"U-component_of_WINDS"},"data":[0,0,0,0,0,0,0,0,0,0,0,0,0,0,0,0,0,0,0,0,0,0,0,0,0,0,0,0,0,0,0,0,0,0,0,0,0,0,0,0,0,0,0,0,0,0,0,0,0,0,0,0,0,0,0,0,0,0,-1.273,-1.2732,0,-1.2842,-1.2843,-1.2845,-1.2887,-1.2886,-1.2886,-1.2886,-1.3,-1.3003,-1.3007,0,0,0,0,0,0,0,0,0,0,0,0,0,-1.2555,-1.2558,-1.273,-1.2732,-1.2733,-1.2842,-1.2843,-1.2845,-1.2887,-1.2886,-1.2886,-1.2886,-1.2999,-1.3003,-1.3007,0,0,0,0,0,0,0,0,0,0,0,0,0,-1.2645,-1.2559,-1.273,-1.2767,-1.2772,-1.2841,-1.2843,-1.2845,-1.2887,-1.2886,-1.2886,-1.2885,-1.2998,-1.3002,-1.3007,-1.3049,0,0,-1.3023,-1.3025,0,0,0,0,0,0,0,0,-1.264,-1.2651,-1.276,-1.2765,-1.277,-1.285,-1.2823,-1.2913,-1.2887,-1.2843,-1.2886,-1.2885,-1.295,-1.2959,-1.2981,-1.3054,-1.3059,-1.3023,-1.3026,-1.3028,-1.303,0,0,0,0,0,0,0,-1.2633,-1.2647,-1.2775,-1.2762,-1.2768,-1.2779,-1.2791,-1.2841,-1.2898,-1.2847,-1.285,-1.2863,-1.2953,-1.2976,-1.2984,-1.306,-1.3023,-1.3028,-1.3031,-1.3033,-1.3174,-1.3174,0,0,0,0,0,0,-1.2621,-1.2641,-1.2771,-1.2778,-1.2702,-1.2782,-1.2796,-1.2825,-1.2898,-1.2908,-1.2863,-1.2864,-1.2968,-1.2978,-1.2988,-1.3042,-1.3028,-1.3033,-1.3036,-1.3173,-1.3174,-1.3175,0,0,0,0,0,0,-1.2617,-1.2632,-1.2767,-1.2711,-1.2729,-1.2786,-1.2818,-1.2827,-1.2851,-1.291,-1.2921,-1.2876,-1.2968,-1.2981,-1.3034,-1.3047,-1.3035,-1.304,-1.3172,-1.3173,-1.3174,-1.3149,0,0,0,0,0,0,-1.2612,-1.263,-1.2646,-1.2711,-1.2731,-1.2809,-1.2819,-1.283,-1.2859,-1.2862,-1.2925,-1.2935,-1.2969,-1.3026,-1.3039,-1.3053,-1.3044,-1.3171,-1.3173,-1.3174,-1.3149,-1.3149,-1.3149,0,0,0,0,0,-1.2605,-1.2635,-1.2647,-1.2662,-1.2752,-1.281,-1.2822,-1.2859,-1.286,-1.2877,-1.2915,-1.2933,-1.3043,-1.3031,-1.3046,-1.3062,-1.3171,-1.3172,-1.3174,-1.3149,-1.3149,-1.3149,0,0,0,0,0,0,-1.257,-1.2644,-1.2658,-1.2709,-1.2753,-1.2817,-1.2839,-1.2858,-1.2903,-1.2904,-1.2949,-1.2963,-1.3011,-1.3042,-1.3027,-1.3106,-1.3108,-1.3113,-1.3084,-1.3085,-1.3085,-1.3077,-1.3048,0,0,0,0,0,-1.2568,-1.2609,-1.2671,-1.271,-1.2731,-1.2781,-1.2808,-1.2833,-1.288,-1.2899,-1.2941,-1.2987,-1.3032,-1.306,-1.3105,-1.3154,-1.3169,-1.3173,-1.3173,-1.3173,-1.3176,-1.3205,-1.3208,-1.318,-1.318,-1.318,0,0,-1.2565,-1.261,-1.2633,-1.2704,-1.2741,-1.2782,-1.2796,-1.2839,-1.287,-1.2906,-1.2958,-1.299,-1.3044,-1.3095,-1.312,-1.3122,-1.3187,-1.3175,-1.3174,-1.3178,-1.3207,-1.321,-1.3212,-1.3181,-1.3181,-1.3181,0,0,-1.2579,-1.2617,-1.2654,-1.2692,-1.2748,-1.2781,-1.279,-1.2851,-1.2874,-1.2927,-1.2955,-1.2993,-1.3069,-1.3106,-1.3135,-1.3166,-1.3184,-1.3179,-1.318,-1.3208,-1.321,-1.3212,-1.3223,-1.3227,-1.3182,-1.3182,-1.3182,0,-1.2568,-1.2631,-1.2671,-1.2713,-1.2743,-1.2778,-1.2816,-1.285,-1.2917,-1.2938,-1.294,-1.3037,-1.3076,-1.3136,-1.3144,-1.3166,-1.3178,-1.3172,-1.3206,-1.3209,-1.3212,-1.3223,-1.3227,-1.3181,-1.3181,-1.3181,-1.3182,0,-1.2614,-1.2658,-1.2681,-1.2746,-1.2779,-1.2819,-1.2865,-1.2894,-1.2917,-1.2951,-1.3005,-1.3052,-1.3107,-1.3124,-1.3146,-1.3188,-1.3188,-1.3198,-1.32,-1.3213,-1.3224,-1.3229,-1.318,-1.318,-1.318,-1.3181,0,0,-1.2609,-1.2696,-1.2704,-1.2734,-1.2799,-1.2834,-1.2875,-1.293,-1.2954,-1.3,-1.3036,-1.3101,-1.311,-1.3143,-1.317,-1.3195,-1.3217,-1.3202,-1.3204,-1.3203,-1.3266,-1.3259,-1.3263,-1.323,-1.3231,-1.3231,-1.3262,0,-1.2632,-1.2708,-1.2746,-1.2805,-1.2846,-1.288,-1.2916,-1.296,-1.2993,-1.3033,-1.3069,-1.3114,-1.3123,-1.3143,-1.3169,-1.3208,-1.323,-1.3207,-1.3264,-1.3266,-1.3249,-1.3269,-1.3261,-1.3287,-1.3267,-1.3267,-1.3268,0,-1.2669,-1.2715,-1.2779,-1.284,-1.2859,-1.289,-1.2944,-1.2981,-1.3032,-1.3055,-1.3092,-1.3119,-1.3164,-1.3164,-1.3228,-1.3211,-1.3237,-1.326,-1.3262,-1.3269,-1.3267,-1.3276,-1.3297,-1.33,-1.3275,-1.3275,-1.3274,0,-1.2659,-1.2737,-1.2785,-1.281,-1.2883,-1.2904,-1.2936,-1.2986,-1.3017,-1.3064,-1.3084,-1.3135,-1.3164,-1.3203,-1.3243,-1.3239,-1.3304,-1.3306,-1.3324,-1.3322,-1.3335,-1.3334,-1.336,-1.3352,-1.3352,-1.3352,-1.3352,0,-1.2681,-1.2719,-1.2782,-1.2811,-1.2855,-1.2899,-1.2941,-1.2974,-1.3019,-1.3057,-1.3089,-1.3124,-1.3175,-1.3216,-1.3248,-1.3296,-1.3309,-1.3328,-1.3336,-1.3325,-1.3323,-1.3342,-1.3342,-1.3353,-1.3352,-1.3352,-1.3352,0,-1.2677,-1.2721,-1.2776,-1.284,-1.2857,-1.2886,-1.2942,-1.2972,-1.3007,-1.3054,-1.3067,-1.3122,-1.3172,-1.3216,-1.3282,-1.3304,-1.3354,-1.3363,-1.3336,-1.3341,-1.3355,-1.3353,-1.3395,-1.3403,-1.3389,-1.3389,-1.3389,0,-1.2688,-1.2718,-1.2786,-1.2813,-1.2844,-1.2887,-1.2919,-1.2964,-1.2995,-1.3056,-1.3079,-1.3132,-1.3176,-1.3255,-1.33,-1.3351,-1.3363,-1.3374,-1.3371,-1.3359,-1.3363,-1.3361,-1.3365,-1.3374,-1.3374,-1.3374,-1.3374,0,-1.2703,-1.2723,-1.2768,-1.282,-1.2857,-1.29,-1.2944,-1.2964,-1.3017,-1.3051,-1.3103,-1.3137,-1.3206,-1.3257,-1.3314,-1.3347,-1.3369,-1.3374,-1.3381,-1.337,-1.3353,-1.3363,-1.3336,-1.3373,-1.3373,-1.3373,-1.3373,-1.3373,-1.2707,-1.2735,-1.2788,-1.2836,-1.2874,-1.2915,-1.2947,-1.2986,-1.303,-1.3089,-1.3113,-1.3165,-1.3217,-1.3295,-1.3328,-1.337,-1.3374,-1.3384,-1.3386,-1.3388,-1.3386,-1.3347,-1.3381,-1.3381,-1.3381,-1.3381,-1.3381,0,-1.2724,-1.276,-1.2804,-1.2865,-1.2903,-1.2921,-1.2972,-1.3002,-1.3048,-1.3095,-1.3138,-1.3198,-1.3249,-1.3299,-1.3352,-1.3377,-1.3388,-1.3389,-1.3388,-1.3395,-1.3379,-1.3368,-1.3379,-1.3379,-1.3379,-1.3379,-1.3379,-1.3379,-1.2737,-1.2786,-1.2813,-1.2882,-1.2918,-1.297,-1.2997,-1.3035,-1.3072,-1.3138,-1.318,-1.3213,-1.3261,-1.3319,-1.3366,-1.338,-1.3398,-1.3396,-1.3412,-1.3397,-1.3396,-1.3396,-1.3386,-1.34,-1.34,-1.3425,-1.3425,-1.3425]},{"header":{"parameterUnit":"m.s-1","parameterCategory":1,"la1":30.2991,"la2":30.254,"lo1":-89.0895,"lo2":-89.0444,"dy":0.0017,"dx":0.0017,"nx":28,"ny":28,"refTime":"2024-04-15T09:00:00:Z","depth":0,"parameterNumber":3,"parameterNumberName":"V-component_of_WINDS"},"data":[0,0,0,0,0,0,0,0,0,0,0,0,0,0,0,0,0,0,0,0,0,0,0,0,0,0,0,0,0,0,0,0,0,0,0,0,0,0,0,0,0,0,0,0,0,0,0,0,0,0,0,0,0,0,0,0,0,0,3.772,3.772,0,3.7714,3.7714,3.7714,3.7638,3.7636,3.7634,3.7632,3.7625,3.7627,3.7628,0,0,0,0,0,0,0,0,0,0,0,0,0,3.7663,3.7665,3.772,3.772,3.7719,3.7714,3.7714,3.7714,3.7638,3.7636,3.7633,3.7631,3.7624,3.7626,3.7628,0,0,0,0,0,0,0,0,0,0,0,0,0,3.7676,3.7665,3.772,3.7681,3.7677,3.7714,3.7714,3.7714,3.7638,3.7636,3.7633,3.763,3.7624,3.7626,3.7629,3.7701,0,0,3.7636,3.7637,0,0,0,0,0,0,0,0,3.7675,3.7678,3.7687,3.7684,3.768,3.7674,3.7691,3.771,3.7639,3.7653,3.7632,3.7628,3.7643,3.7644,3.7649,3.7701,3.7701,3.7636,3.7638,3.7639,3.7639,0,0,0,0,0,0,0,3.7674,3.7678,3.7717,3.7687,3.7683,3.7663,3.7662,3.7695,3.7665,3.7652,3.7646,3.7647,3.7641,3.7647,3.7649,3.7701,3.7636,3.7638,3.764,3.7641,3.7812,3.7815,0,0,0,0,0,0,3.7679,3.7677,3.7717,3.7717,3.767,3.7667,3.7665,3.7678,3.7664,3.7659,3.7649,3.7643,3.7644,3.7646,3.7648,3.7733,3.7639,3.7641,3.7642,3.7809,3.7813,3.7817,0,0,0,0,0,0,3.7678,3.7683,3.7718,3.7696,3.7699,3.7671,3.7686,3.768,3.7686,3.7662,3.7656,3.7661,3.7642,3.7645,3.7689,3.7731,3.7642,3.7644,3.7806,3.7811,3.7815,3.7902,0,0,0,0,0,0,3.7677,3.7683,3.7711,3.7697,3.77,3.7759,3.7689,3.7682,3.7691,3.7683,3.7672,3.7667,3.764,3.7686,3.7691,3.7733,3.7646,3.7802,3.7808,3.7813,3.7896,3.791,3.7921,0,0,0,0,0,3.7675,3.7735,3.7713,3.7718,3.7734,3.7762,3.7764,3.7732,3.7694,3.7722,3.7706,3.7667,3.7726,3.7691,3.7697,3.774,3.7799,3.7806,3.7813,3.789,3.7907,3.7921,0,0,0,0,0,0,3.7754,3.7733,3.7707,3.7765,3.7766,3.7749,3.7782,3.7751,3.7761,3.7754,3.7713,3.7711,3.7762,3.7755,3.7716,3.781,3.7756,3.7764,3.7812,3.7828,3.7841,3.7841,3.7648,0,0,0,0,0,3.7779,3.7803,3.7783,3.7836,3.7838,3.781,3.7821,3.7797,3.7796,3.7795,3.7783,3.7783,3.7802,3.7814,3.783,3.7894,3.7891,3.7927,3.794,3.7951,3.7958,3.7992,3.8008,3.784,3.7839,3.7839,0,0,3.7829,3.782,3.7838,3.7852,3.7849,3.7876,3.7811,3.7841,3.786,3.78,3.7841,3.7832,3.783,3.7885,3.7908,3.788,3.8004,3.7959,3.7968,3.797,3.8001,3.8017,3.8031,3.7844,3.7843,3.7843,0,0,3.7934,3.793,3.7974,3.7973,3.7971,3.7952,3.7963,3.7951,3.7943,3.7984,3.7939,3.7961,3.7994,3.7994,3.7998,3.8105,3.8069,3.8111,3.8178,3.8212,3.8225,3.8236,3.8275,3.8289,3.8119,3.8119,3.8119,0,3.7996,3.8034,3.8,3.8034,3.8041,3.7988,3.8032,3.8033,3.8036,3.8042,3.8011,3.8052,3.8046,3.8101,3.8127,3.8132,3.8143,3.8112,3.8226,3.8237,3.8247,3.8283,3.8298,3.8124,3.8123,3.8123,3.8122,0,3.8111,3.8138,3.8174,3.8179,3.819,3.8229,3.8201,3.8216,3.8191,3.8176,3.8219,3.8211,3.8224,3.8235,3.821,3.8286,3.8269,3.8233,3.8178,3.8269,3.8302,3.8316,3.8131,3.8129,3.8128,3.8127,0,0,3.8264,3.8251,3.8265,3.8267,3.8261,3.8281,3.8318,3.8331,3.8346,3.835,3.8379,3.8408,3.8375,3.838,3.8355,3.8385,3.847,3.8345,3.8344,3.8368,3.8554,3.8581,3.8598,3.8447,3.8449,3.8451,3.8554,0,3.8366,3.8428,3.8399,3.8464,3.8489,3.844,3.8471,3.8471,3.8459,3.8478,3.8463,3.8484,3.8439,3.8441,3.8469,3.8454,3.8507,3.8446,3.8474,3.8475,3.8476,3.8615,3.8644,3.8741,3.8567,3.8569,3.857,0,3.8491,3.8502,3.857,3.8561,3.857,3.8599,3.861,3.8629,3.8628,3.8616,3.8623,3.8591,3.8626,3.8572,3.862,3.858,3.8589,3.8584,3.8587,3.8588,3.8528,3.862,3.8771,3.8786,3.859,3.8589,3.8587,0,3.8597,3.8628,3.8673,3.8676,3.8666,3.8688,3.8685,3.8681,3.8691,3.87,3.8707,3.872,3.8727,3.8738,3.8711,3.8674,3.8762,3.8706,3.8754,3.8755,3.8774,3.8773,3.8929,3.8781,3.8781,3.8781,3.878,0,3.8713,3.8756,3.872,3.8748,3.8795,3.8761,3.8809,3.8801,3.8798,3.8823,3.8781,3.8805,3.8768,3.8789,3.8768,3.8811,3.8814,3.8806,3.88,3.881,3.8811,3.8815,3.8808,3.8784,3.8784,3.8783,3.8782,0,3.8838,3.8815,3.8861,3.8849,3.8847,3.8882,3.8871,3.8896,3.8881,3.8913,3.8919,3.8895,3.8917,3.8891,3.8911,3.8897,3.8955,3.8939,3.8956,3.8951,3.9001,3.8997,3.9165,3.9186,3.9024,3.9026,3.9027,0,3.8913,3.8946,3.8937,3.8951,3.8951,3.8974,3.8985,3.8953,3.8966,3.8968,3.8993,3.9012,3.9025,3.9063,3.9047,3.9062,3.9046,3.9104,3.9048,3.9057,3.9047,3.9046,3.9049,3.9116,3.9118,3.9119,3.912,0,3.9049,3.9037,3.9054,3.9069,3.9083,3.9092,3.9098,3.9112,3.9079,3.9096,3.9119,3.9129,3.915,3.9169,3.918,3.9176,3.9144,3.9138,3.915,3.9161,3.9169,3.9166,3.8987,3.9134,3.9133,3.9132,3.9131,3.9131,3.9151,3.9179,3.9177,3.9198,3.92,3.9207,3.923,3.9219,3.9237,3.9252,3.9232,3.9261,3.9259,3.9271,3.9271,3.9293,3.9268,3.9285,3.9289,3.9294,3.9302,3.9166,3.9294,3.9294,3.9294,3.9293,3.9293,0,3.9285,3.9283,3.9303,3.9313,3.933,3.9298,3.9304,3.932,3.9346,3.9348,3.9362,3.9389,3.9408,3.9394,3.941,3.943,3.9415,3.9435,3.9433,3.9433,3.9323,3.9311,3.9447,3.9447,3.9447,3.9447,3.9447,3.9447,3.9357,3.9402,3.9389,3.9434,3.9431,3.9459,3.9465,3.9471,3.9473,3.9505,3.9521,3.9512,3.9508,3.9523,3.9539,3.9534,3.9542,3.9568,3.9558,3.9456,3.9441,3.9426,3.9415,3.957,3.957,3.9666,3.9667,3.9668]}]]